Torna al catalogo

O3B FM11

AttivoComunicazioniMEO
NORAD 40349·PAYLOAD·🇱🇺 Luxembourg

Lanciato Dec 18, 2014 da Guiana Space Centre

Loading…

Prossimi Passaggi (prossime 24 ore)

TLE

AggiornatoSource: CelesTrak SupGP

Epoca: Sep 13, 2026, 16:00 UTC

1 40349C 14083B   26256.66666667  .00000000  00000+0  00000+0 0  2560
2 40349   0.0541 348.4972 0002205 169.0472 100.0023  5.00115658    15

Traccia O3B FM11 in tempo reale con AllMySat

Download on the App Store